Flag for U.S.A. Weather past 2 weeks in Metlakatla, Alaska, U.S.A.

Now
46 °F

Overcast.


Feels Like: 42 °F
Forecast: 45 / 48 °F
Wind: 8 mph from East

Location: Metlakatla - Metlakatla Seaplane Base

Current Time: Apr 19, 2015 at 3:36:47 PM

Latest Report: Apr 19, 2015 at 3:16 PM


Visibility: 10 mi

Pressure: 30.22 "Hg

Humidity: 82%

Dew point: 41 °F

Location of MetlakatlaLocation

Historic Weather in Metlakatla — Graph

°F

Metlakatla temperature yesterday

Maximum temperature yesterday: 48 °F (at 11:16 AM)
Minimum temperature yesterday: 43 °F (at 12:16 AM)
Average temperature yesterday: 46 °F

Past Weeks' High & Low Weather Summary

 TemperatureHumidityPressure
High52 °F (Apr 8, 1:56 PM)100% (Apr 12, 9:56 PM)30.52 "Hg (Apr 12, 9:56 PM)
Low34 °F (Apr 12, 9:56 PM)54% (Apr 6, 7:56 PM)29.33 "Hg (Apr 13, 2:16 PM)
Average43 °F78%29.95 "Hg
* Reported Apr 4 2:16 PM — Apr 19 2:16 PM, Metlakatla, Weather by CustomWeather, © 2015

Note: Actual official high and low records may vary slightly from our data, if they occured in-between our weather recording intervals... More about our weather records

Advertising

Metlakatla weather history for previous 24 hours

 ConditionsComfort  
Time TempWeatherWind HumidityBarometerVisibility
2:16 PM
Sun, Apr 19
46 °FOvercast.7 mph82%30.24 "Hg10 mi
1:56 PM46 °FOvercast.9 mph76%30.25 "Hg10 mi
1:36 PM46 °FOvercast.10 mph76%30.25 "Hg10 mi
1:16 PM46 °FMostly cloudy.8 mph76%30.26 "Hg10 mi
12:56 PM46 °FOvercast.9 mph76%30.26 "Hg10 mi
12:36 PM46 °FOvercast.9 mph76%30.27 "Hg10 mi
12:16 PM46 °FOvercast.6 mph76%30.28 "Hg10 mi
11:56 AM46 °FOvercast.7 mph76%30.28 "Hg10 mi
11:36 AM46 °FOvercast.8 mph76%30.28 "Hg10 mi
11:16 AM46 °FOvercast.6 mph71%30.28 "Hg10 mi
10:56 AM46 °FOvercast.5 mph76%30.28 "Hg10 mi
10:36 AM46 °FOvercast.3 mph71%30.29 "Hg10 mi
10:16 AM46 °FOvercast.3 mph76%30.29 "Hg10 mi
9:56 AM46 °FOvercast.No wind76%30.29 "Hg10 mi
9:36 AM46 °FOvercast.3 mph76%30.29 "Hg10 mi
9:16 AM45 °FOvercast.3 mph81%30.30 "Hg10 mi
8:56 AM46 °FOvercast.No wind76%30.30 "Hg10 mi
8:36 AM45 °FOvercast.No wind81%30.30 "Hg10 mi
8:16 AM45 °FOvercast.No wind81%30.30 "Hg10 mi
7:56 AM45 °FOvercast.No wind81%30.31 "Hg10 mi
7:36 AM45 °FOvercast.3 mph81%30.31 "Hg9 mi
7:16 AM45 °FOvercast.No wind81%30.31 "Hg10 mi
6:56 AM45 °FOvercast.No wind81%30.31 "Hg9 mi
6:36 AM45 °FOvercast.No wind81%30.31 "Hg10 mi
6:16 AM45 °FOvercast.No wind76%30.31 "Hg10 mi
5:56 AM45 °FOvercast.No wind76%30.32 "Hg10 mi
5:36 AM46 °FOvercast.No wind71%30.31 "Hg10 mi
5:16 AM46 °FOvercast.No wind71%30.32 "Hg10 mi
4:56 AM46 °FOvercast.3 mph71%30.32 "Hg10 mi
4:36 AM46 °FOvercast.6 mph71%30.32 "Hg10 mi
4:16 AM46 °FOvercast.6 mph71%30.32 "Hg10 mi
3:56 AM46 °FOvercast.No wind71%30.32 "Hg10 mi
3:36 AM46 °FOvercast.No wind71%30.32 "Hg10 mi
3:16 AM46 °FOvercast.No wind71%30.33 "Hg10 mi
2:56 AM46 °FMostly cloudy.No wind71%30.33 "Hg10 mi
2:36 AM46 °FOvercast.3 mph66%30.33 "Hg10 mi
2:16 AM46 °FOvercast.5 mph66%30.34 "Hg10 mi
1:56 AM46 °FMostly cloudy.No wind62%30.34 "Hg10 mi
1:36 AM46 °FMostly cloudy.No wind66%30.34 "Hg10 mi
1:16 AM46 °FMostly cloudy.No wind62%30.35 "Hg10 mi
12:56 AM46 °FMostly cloudy.No wind62%30.35 "Hg4 mi
12:36 AM48 °FMostly cloudy.No wind54%30.35 "Hg7 mi
12:16 AM46 °FOvercast.No wind57%30.36 "Hg10 mi
11:56 PM
Sat, Apr 18
46 °FOvercast.No wind62%30.36 "Hg10 mi
11:36 PM46 °FMostly cloudy.No wind66%30.36 "Hg10 mi
11:16 PM46 °FMostly cloudy.No wind62%30.36 "Hg10 mi
10:56 PM46 °FMostly cloudy.No wind57%30.37 "Hg10 mi
10:36 PM46 °FOvercast.No wind66%30.37 "Hg10 mi
10:16 PM46 °FOvercast.No wind71%30.38 "Hg10 mi
9:56 PM46 °FPassing clouds.No wind66%30.38 "Hg10 mi
9:36 PM46 °FClear.No wind76%30.38 "Hg10 mi
9:16 PM46 °FPassing clouds.No wind76%30.38 "Hg10 mi
8:56 PM46 °FPassing clouds.No wind76%30.39 "Hg10 mi
8:36 PM46 °FScattered clouds.No wind76%30.39 "Hg10 mi
8:16 PM46 °FOvercast.No wind76%30.39 "Hg10 mi
7:56 PM46 °FPartly sunny.No wind76%30.40 "Hg10 mi
7:36 PM46 °FScattered clouds.No wind71%30.40 "Hg10 mi
7:16 PM46 °FOvercast.No wind76%30.41 "Hg10 mi
6:56 PM48 °FPartly sunny.No wind71%30.41 "Hg10 mi
6:36 PM48 °FScattered clouds.No wind66%30.42 "Hg10 mi
6:16 PM48 °FPartly sunny.No wind66%30.43 "Hg10 mi
5:56 PM46 °FPartly sunny.3 mph71%30.43 "Hg10 mi
5:16 PM46 °FSunny.8 mph71%30.45 "Hg10 mi
4:56 PM46 °FPassing clouds.9 mph71%30.45 "Hg10 mi
4:36 PM46 °FBroken clouds.12 mph71%30.46 "Hg10 mi
4:16 PM48 °FOvercast.14 mph71%30.46 "Hg10 mi
3:56 PM48 °FOvercast.14 mph66%30.47 "Hg10 mi
3:36 PM48 °FOvercast.12 mph66%30.48 "Hg10 mi
3:16 PM48 °FOvercast.12 mph66%30.48 "Hg10 mi
Weather by CustomWeather, © 2015

See weather overviewHow to use our weather pages